Location: Ellerstadt
(49.4644°N, 8.2615°E)
Time: 20:39:44
(UTC+00:00)

Vanguard 1 - Pass Details

Date: 14 June 2021
Orbit: 651 x 3831 km, 34.2° (Epoch: 29 July)

Event Time Altitude Azimuth Distance (km) Brightness Sun altitude
Rises 02:58:17 0° 268° (W) 6,183 13.7 -3.5°
Reaches altitude 10° 03:04:07 10° 256° (WSW) 4,535 12.9 -2.8°
Maximum altitude 03:11:54 21° 213° (SSW) 2,817 11.9 -1.8°
Drops below altitude 10° 03:17:16 10° 166° (SSE) 2,975 12.3 -1.2°
Sets 03:20:08 0° 150° (SSE) 3,612 12.9 -0.8°
